sat.trackr.live / text

‹ back to catalog

STARLINK-30111

NORAD 56302 · 2023-056S

PAYLOAD ACTIVE UNKNOWN

§ Identity

Operator
Country
US
Launch date
2023-04-19
Launch site
AFETR
Launch vehicle
Mass (kg)
RCS (m²)

Purposes: comms

External: N2YO · Heavens-Above · Gunter

§ Orbital elements

Epoch: 2026-05-24T23:59:38.990112Z

Period
94.27 min
Inclination
42.9997°
Eccentricity
0.0000316
Mean motion
15.27579814 rev/d
Perigee alt
482.8 km
Apogee alt
483.3 km
Semi-major
6,861.2 km
B*
3.8867e-4
RAAN
137.6266°
Arg perigee
207.2929°
Mean anomaly
152.7906°
Rev number
17,177

§ Raw data

STARLINK-301111 56302U 23056S   26144.99975683  .00010448  00000+0  38867-3 0  99962 56302  42.9997 137.6266 0000316 207.2929 152.7906 15.27579814171772

JSON: /api/v1/satellites/56302 · /tle

For live sub-satellite position, see the globe view (requires WebGL).

§ Visibility from observer

Set your observer location to see the next 7 days of passes ≥ 10°. The values pass through the URL so the page stays shareable.

No JS? Fill the form by hand. The geolocation button needs JavaScript.